Location: Gunong Taman
(2.2667°N, 113.7500°E)
Time: 18:09:42
(UTC+00:00)

Daily predictions for brighter satellites

Satellite Brightness Start Highest point End
(mag) Time Altitude Azimuth Time Altitude Azimuth Time Altitude Azimuth
Lacrosse 5 1.7 12:00:38 10° SSW 12:05:41 66° ESE 12:07:54 33° NE
GENESIS II 4.5 12:07:00 10° NNW 12:10:49 61° WSW 12:11:12 57° SW
Cosmos 1697 Rocket 2.7 12:06:32 10° NNW 12:12:10 78° WSW 12:14:55 31° S
Meteor 2-3 Rocket 3.6 12:06:55 10° S 12:12:33 86° E 12:18:12 10° N
SL-8 R/B 4.4 12:10:42 10° SW 12:15:21 53° NW 12:19:03 15° NNE
Centaur D-1AR AC-36 3.4 12:11:50 10° WNW 12:16:35 74° SSW 22:15:20 10° ENE
Meteor 2-19 Rocket 4.3 12:10:34 10° S 12:16:38 87° W 12:22:41 10° N
GPS 2-17 Rocket1 4.3 12:16:00 10° W 12:20:19 38° NNW 12:21:29 32° NNE
Hubble Space Telescope 2.9 12:17:29 10° NNW 12:19:24 17° N 12:19:24 17° N
Cosmos 2360 4.4 12:19:48 10° NNW 12:25:25 67° WSW 12:27:16 42° S
ATLAS 2A CENTAUR R/B 2.8 12:17:53 10° WSW 12:25:40 45° NW 12:26:06 43° NNW
MetOp-A 4.0 12:26:51 71° S 12:27:27 86° WSW 12:32:48 10° NNW
Okean-O 3.9 12:26:37 25° SSW 12:28:32 37° WSW 12:32:36 10° NW
GPS 2-12 Rocket1 4.2 12:26:14 10° W 12:30:01 38° SW 12:30:01 38° SW
OAO 2 Rocket 4.2 12:34:03 10° NW 12:37:41 43° NNW 12:37:41 43° NNW
Cosmos 1980 Rocket 3.3 12:58:08 10° NNW 13:02:14 42° WNW 13:02:14 42° WNW
ARIANE 5 R/B 4.2 12:59:24 10° W 13:42:48 11° E 21:49:37 10° E
Centaur D AC-25 4.3 12:35:06 10° WNW 13:04:14 52° NNE 13:04:56 51° NNE
ATLAS 3B R/B 4.5 13:48:04 10° NW 13:51:30 28° NW 13:51:30 28° NW
ATLAS 2AS CENTAUR R/B 4.4 19:40:18 10° N 19:45:37 26° ENE 19:50:43 10° ESE
Cosmos 1943 Rocket 3.1 20:04:41 43° NE 20:04:41 43° NE 20:08:36 10° NNE
Cosmos 1153 Rocket 4.5 20:15:57 76° NNE 20:15:57 76° NNE 20:21:39 10° N
METEOR-M 4.5 20:15:03 10° NNE 20:19:24 60° NNE 20:19:24 60° NNE
USA 215 3.7 20:14:56 10° NNE 20:20:20 46° NNW 20:20:20 46° NNW
Cosmos 2369 Rocket 3.3 20:25:35 25° SSE 20:28:22 41° ESE 20:33:40 10° NE
ARIANE 5 R/B 4.4 20:28:44 64° S 20:28:44 64° S 20:36:13 10° E
Cosmos 1459 Rocket 4.3 20:29:39 19° SSE 20:33:58 62° E 20:39:56 10° NNE
Cosmos 1300 4.2 20:40:44 28° N 20:40:44 28° N 20:42:38 10° N
Ariane H10 3.8 20:39:15 47° WSW 20:40:57 56° SSW 20:44:43 10° ESE
Cosmos 2297 4.5 20:43:41 35° NW 20:43:41 35° NW 20:47:37 10° N
Spelda 30 3.3 20:46:09 54° W 20:47:23 85° S 20:50:24 10° E
BLOCK DM-SL R/B 3.7 20:44:23 40° W 20:47:33 75° S 20:52:05 10° E
SJ 16-02 1.5 20:49:01 58° NNW 20:49:01 58° NNW 20:52:41 10° N
Delta 142 4.5 20:48:44 50° SW 20:49:24 53° SSW 20:54:44 10° SE
CZ-3A R/B 4.3 20:52:54 29° SSW 20:52:54 29° SSW 20:56:13 10° SSE
Cosmos 2123 Rocket 4.5 20:46:21 10° NNW 20:51:04 38° WNW 20:51:04 38° WNW
Cosmos 2173 Rocket 3.9 20:47:18 18° S 20:52:14 83° W 20:58:36 10° N
Meteor 1-21 Rocket 4.3 20:47:44 10° N 20:53:17 74° E 20:58:48 10° S
Envisat 4.4 20:50:47 10° NE 20:55:27 37° ESE 21:00:07 10° S
ARIANE 5 DEB (SYLDA) 2.3 20:58:24 52° N 20:58:24 52° N 21:00:43 10° ENE
ADEOS 4.4 20:54:28 10° NNE 20:59:30 51° ESE 21:04:33 10° S
SWIFT 3.0 20:59:42 39° NW 21:00:14 41° NNW 21:04:15 10° NE
GPS 2-17 Rocket1 4.1 20:58:03 23° NW 21:00:35 42° NNE 21:04:58 10° E
USA 81 4.2 21:00:25 43° WSW 21:01:21 48° W 21:06:24 10° NNW
Meteor 2-10 Rocket 3.8 20:56:26 10° S 21:01:25 63° E 21:06:20 10° NNE
Genesis I 3.5 21:00:19 38° S 21:01:28 58° ESE 21:05:09 10° NNE
Cosmos 1892 Rocket 3.5 20:59:35 10° NNW 21:03:48 55° W 21:04:45 44° SW
Ariane H10 2.4 21:07:11 36° SSW 21:07:38 38° S 21:12:30 10° E
Meteor 2-11 Rocket 4.5 21:04:08 21° SSW 21:08:06 54° W 21:14:00 10° N
Cosmos 1833 Rocket 2.9 21:02:50 10° N 21:08:24 71° ENE 21:13:59 10° SSE
Ariane H10+ 4.4 20:09:39 10° W 21:08:33 83° N 21:14:14 10° E
Cosmos 2016 Rocket 3.9 21:03:22 10° S 21:09:28 86° E 21:15:36 10° N
Delta 128 3.4 21:08:07 37° WNW 21:09:47 73° SSW 21:14:28 10° SE
Cosmos 1703 3.1 21:09:22 10° NNW 21:13:11 61° W 21:17:02 10° S
Cosmos 2228 3.1 21:13:53 10° S 21:18:16 78° E 21:22:36 10° N
Ariane H10+ 4.1 21:16:16 26° SW 21:19:02 57° SSE 21:43:31 10° E
Lacrosse 4 Rocket 3.3 21:25:34 14° WNW 21:25:34 14° WNW 21:27:17 10° NW
Cosmos 2082 Rocket 3.4 21:25:18 10° N 21:30:45 47° ENE 21:36:12 10° SSE
Cosmos 1455 2.7 21:27:19 10° S 21:31:02 59° E 21:34:42 10° NNE
ATLAS 2AS CENTAUR R/B 3.2 21:30:48 10° NW 21:36:10 28° WSW 21:41:24 10° S
H-2A R/B 3.1 21:35:11 10° N 21:38:39 41° W 21:42:10 10° SSW
ASTRO E2 4.0 21:37:41 18° WSW 21:39:09 22° SSW 21:42:18 10° SSE
Meteor 1-4 Rocket 3.8 21:36:41 10° SSE 21:39:56 41° E 21:43:11 10° NNE
MOS 1 Rocket 4.4 21:39:08 10° SSW 21:43:19 27° W 21:47:41 10° NW
CZ-3B R/B 4.3 21:34:42 10° NW 21:44:40 38° NNE 21:49:35 10° E
RESURS DK-1 2.3 21:40:59 10° NNW 21:45:02 61° WSW 21:49:04 10° S
Meteor 1-31 Rocket 4.0 21:44:28 10° NNW 21:47:34 23° WNW 21:50:42 10° SW
YAOGAN 6 3.5 21:47:36 10° NNW 21:50:51 30° W 21:54:06 10° SW
Landsat 5 3.6 21:48:46 10° SSE 21:53:02 85° ENE 21:57:25 10° N
USA 281 4.0 21:48:31 10° SSE 21:54:57 58° ENE 22:01:22 10° N
Iridium 2 3.8 21:51:55 10° N 21:55:40 79° E 21:59:26 10° S
Cosmos 1726 Rocket 3.7 21:53:03 10° SSW 21:57:22 53° W 22:01:39 10° N
Mugunghwa Rocket 4.3 21:55:55 10° SW 22:02:32 62° SSE 22:08:46 10° ENE
IRAS Rocket 4.2 21:58:17 10° S 22:03:46 69° WSW 22:09:12 10° NNW
CZ-4C R/B 2.9 22:01:42 10° S 22:05:14 73° WSW 22:08:41 10° NNW
Cosmos 2233 Rocket 4.1 22:00:14 10° SSW 22:06:11 53° W 22:12:10 10° N
